Wind_Speed
4 3 1 4 5 4 5 5 4 3 3 4 3 1 4 7 8 8 9 9 9 8 8 8 7 6 6 5 6 6 7 6 5 3 1 1 1 2 8 13 16 16 15
4 6 5 7 8 8 7 6 5 6 5 5 4 4 3 5 8 9 11 11 11 11 11 10 10 9 9 9 8 7 6 7 5 3 3 2 2 6 7 11 11 14 14
10 8 9 8 10 10 11 12 10 8 8 7 7 7 6 6 7 9 12 13 13 12 12 12 11 12 12 13 10 8 7 8 8 5 5 5 5 8 9 11 13 14 15
11 8 10 11 11 12 13 12 12 13 11 11 10 10 10 10 9 10 12 13 15 16 15 13 14 16 15 12 10 9 8 10 10 8 8 7 11 12 13 12 15 12 13
16 13 13 12 13 15 15 14 15 15 15 14 13 13 13 12 11 12 13 14 16 17 17 18 17 15 14 11 9 9 10 12 11 10 10 12 16 11 18 17 14 12 14
25 21 16 16 16 16 17 18 18 18 19 18 17 17 16 15 14 15 17 17 17 18 18 18 17 15 13 10 9 9 10 11 11 12 13 16 19 19 18 16 15 14 14
21 19 20 20 21 22 21 21 21 20 22 22 21 20 20 19 18 18 19 20 19 18 17 18 16 15 13 11 10 9 10 10 11 10 10 18 19 20 20 18 17 15 14
22 22 21 23 24 24 25 25 24 23 23 24 24 23 23 22 20 20 20 21 20 19 18 18 17 17 14 12 11 11 10 9 9 11 11 16 18 14 15 16 18 16 14
26 26 26 26 28 29 28 28 28 28 28 27 27 27 26 25 24 23 22 22 22 21 20 18 19 20 17 16 14 13 11 9 10 10 9 16 19 19 16 13 13 15 14
30 31 31 31 31 33 33 32 31 32 32 32 32 31 30 28 27 26 24 24 23 23 22 21 22 22 20 19 17 16 13 11 9 10 9 15 20 20 18 14 11 13 15
33 34 35 35 35 35 35 35 36 35 36 36 35 34 33 32 31 29 27 27 26 25 23 22 24 25 24 22 20 18 16 15 12 12 15 18 22 21 19 15 13 12 15
36 37 38 38 40 40 39 39 39 39 37 38 39 38 38 37 35 34 31 30 30 28 26 26 26 28 28 27 23 23 18 18 17 16 19 21 25 24 20 20 16 13 14
41 41 41 42 43 43 44 43 43 43 42 41 41 42 41 42 40 38 36 32 33 33 31 30 30 32 32 30 28 26 24 23 23 21 22 26 25 25 23 21 19 17 13
40 42 44 44 44 45 46 47 47 46 46 45 45 45 43 43 44 44 40 35 35 38 37 35 35 34 33 33 31 28 25 25 25 24 23 28 31 30 22 24 22 18 17
43 42 43 42 41 43 47 49 48 49 49 48 48 48 47 45 46 46 46 44 35 43 43 41 40 37 35 34 32 32 28 26 26 25 24 28 33 33 31 32 24 25 21
40 42 44 45 46 43 42 44 48 50 51 52 52 52 51 48 48 48 48 47 51 39 46 29 51 40 38 36 37 33 31 28 26 26 25 26 35 37 31 30 29 25 21
44 44 46 47 46 48 46 44 46 47 49 52 54 55 55 53 52 50 49 49 52 50 54 40 42 41 40 39 38 37 36 33 30 26 27 27 34 38 37 31 29 25 23
39 38 39 40 42 42 44 46 46 46 49 50 51 55 56 57 56 53 53 51 50 56 43 51 45 40 45 43 43 41 39 35 32 29 28 28 30 39 41 40 33 32 25
34 34 33 34 34 34 37 37 38 44 47 50 52 52 54 58 58 58 56 55 52 52 53 46 42 33 53 50 45 42 40 39 36 34 31 29 31 35 43 45 43 37 32
33 34 34 34 35 35 34 33 36 34 38 42 49 52 53 54 58 60 58 57 56 52 53 61 44 50 37 39 47 41 45 42 40 36 33 30 29 33 38 45 48 45 40
39 40 40 39 38 39 37 36 33 34 34 36 39 44 49 54 55 58 59 59 57 56 51 59 49 45 46 34 43 50 47 47 43 38 36 32 29 30 32 38 46 49 46
43 45 47 47 46 42 40 38 37 35 35 34 34 37 40 46 53 55 56 58 59 56 52 49 56 55 46 38 36 47 54 55 45 41 39 35 30 29 30 32 38 44 45
49 50 49 46 44 42 41 40 37 36 36 36 34 33 34 36 41 49 55 56 57 56 53 49 42 45 60 47 37 35 52 57 54 45 44 38 33 29 30 29 30 34 36
50 47 45 44 43 40 38 39 38 35 34 35 36 34 33 34 36 40 45 51 56 55 54 51 49 42 44 47 49 39 46 50 51 47 45 40 36 32 32 31 31 31 32
48 44 41 40 39 39 38 36 37 36 33 32 35 35 34 32 33 34 38 41 46 54 54 53 51 54 38 35 43 37 44 43 43 48 45 41 39 36 32 36 34 32 33
43 41 40 38 36 34 34 35 35 36 35 31 31 35 34 33 32 33 33 34 35 43 50 53 53 55 49 52 43 48 43 47 52 44 50 44 39 35 34 33 34 34 34
Wind_Direction
247 238 276 243 202 236 267 275 284 239 226 221 213 206 222 222 220 218 217 221 222 228 231 241 248 261 270 288 299 290 280 268 264 259 231 254 105 152 160 169 166 181 190
328 226 220 247 231 214 208 237 254 256 245 234 232 231 223 236 236 234 228 226 233 243 245 243 252 262 274 288 285 271 260 263 243 215 203 192 157 122 144 154 165 183 181
219 221 215 219 229 235 225 208 208 231 241 239 242 247 247 254 251 246 244 245 248 250 244 252 252 265 274 279 270 255 248 251 246 213 204 187 137 124 139 157 146 172 170
222 256 218 228 225 226 226 226 220 205 218 238 238 239 242 253 262 260 254 253 250 248 247 252 258 268 271 261 256 235 236 243 243 217 199 186 134 161 159 156 179 178 169
256 245 243 240 235 230 229 233 228 221 214 215 232 242 247 254 260 261 260 256 256 253 252 256 259 260 256 245 246 231 226 236 238 230 209 191 156 175 172 185 201 190 169
255 250 236 245 249 249 241 234 233 229 223 220 221 223 229 243 254 260 265 265 262 256 252 256 254 252 245 235 231 223 220 228 234 235 216 198 180 185 191 200 210 192 176
256 256 257 249 248 251 253 248 241 235 233 229 225 227 228 226 232 248 257 265 264 258 258 254 248 240 230 232 224 216 218 221 231 232 232 193 194 196 204 210 214 198 186
259 262 256 254 250 248 249 251 251 246 238 235 237 235 234 235 233 230 241 254 258 254 249 248 240 231 224 224 229 225 219 223 227 237 230 200 187 194 208 220 223 215 202
260 260 259 257 257 252 249 250 252 252 250 244 241 241 239 238 238 237 234 239 245 248 247 238 233 228 224 223 224 225 224 224 224 234 237 201 180 183 210 227 220 212 203
260 259 257 256 255 257 256 254 253 254 251 248 246 245 242 240 242 242 240 237 238 243 240 237 231 226 223 226 229 218 227 232 230 223 205 193 178 185 211 223 230 219 206
264 263 261 259 258 256 255 255 255 254 254 253 250 246 244 243 243 242 242 241 232 233 240 238 232 228 227 227 230 218 228 243 238 226 192 181 181 193 214 217 243 236 222
268 268 267 264 261 259 259 256 254 253 255 254 253 250 246 243 244 242 240 240 237 230 233 238 234 233 231 230 225 225 235 244 246 232 203 190 187 195 218 213 220 240 246
263 263 263 264 265 263 261 258 258 255 253 253 254 254 251 248 244 243 242 240 238 234 230 236 236 233 235 231 226 225 234 245 245 234 217 201 199 200 217 222 222 230 242
272 269 266 263 260 261 260 260 260 255 253 253 254 254 253 252 249 245 244 236 243 238 233 233 236 238 236 234 231 227 234 240 241 232 223 213 204 201 210 216 215 228 237
279 276 274 270 266 262 260 258 256 256 254 252 252 253 253 253 252 250 244 240 242 237 236 235 234 235 234 235 237 226 234 236 238 231 225 220 211 205 203 214 222 222 232
283 282 279 277 276 271 265 261 257 255 253 253 252 251 251 252 252 250 250 242 239 247 231 243 228 233 233 229 230 229 229 232 234 230 225 221 213 210 206 200 213 221 226
289 291 288 284 278 274 273 267 262 258 255 252 250 251 251 249 250 251 249 250 243 247 246 242 218 231 230 230 230 229 224 227 230 229 226 218 214 213 209 203 220 221 227
300 298 294 290 289 287 278 273 268 262 258 256 253 249 249 249 248 248 249 247 248 244 252 244 251 236 232 229 229 230 224 227 228 226 225 218 217 216 214 214 215 224 223
311 308 305 302 296 289 288 284 274 270 263 257 255 253 250 247 247 248 246 247 248 249 243 246 242 254 238 222 233 226 231 230 229 222 222 218 216 217 218 220 219 226 226
317 314 311 307 302 299 292 287 287 276 271 265 257 254 252 250 247 247 247 246 246 246 246 244 253 250 243 243 225 228 222 231 230 225 220 220 217 218 218 220 222 224 227
316 312 309 308 307 302 296 291 282 283 275 269 266 260 256 252 249 248 248 246 245 245 243 248 254 242 241 250 246 230 230 221 223 225 220 220 216 218 220 218 221 225 227
316 312 309 307 306 304 299 293 290 284 281 279 267 263 261 258 253 249 248 247 246 245 243 244 252 255 247 241 245 243 222 217 221 222 220 219 216 216 218 219 220 220 224
314 313 312 309 306 304 301 296 289 285 282 279 279 270 267 263 259 256 251 247 246 245 243 238 233 257 250 240 231 250 234 236 215 215 216 216 215 215 214 214 213 214 215
317 316 313 309 307 304 302 299 297 291 280 274 269 270 264 263 262 260 257 251 246 244 242 240 240 236 238 240 244 232 233 220 217 214 214 214 214 213 213 213 216 213 211
319 317 314 308 304 303 301 300 298 295 289 276 272 267 267 262 262 261 260 258 251 245 242 239 233 230 223 246 234 219 221 220 222 218 220 218 215 212 213 218 217 211 210
318 317 314 312 309 306 302 300 297 295 292 284 271 268 263 264 259 261 261 260 257 249 241 237 234 233 238 234 234 222 218 228 218 221 217 220 225 220 214 216 221 220 219
Height
3160 3160 3161 3163 3162 3164 3164 3165 3166 3165 3165 3165 3165 3165 3165 3165 3166 3166 3167 3168 3168 3168 3168 3168 3168 3168 3168 3168 3167 3167 3167 3167 3166 3166 3166 3166 3166 3166 3167 3168 3170 3172 3173
3159 3159 3160 3161 3161 3160 3160 3162 3164 3164 3164 3164 3163 3164 3164 3165 3165 3166 3166 3166 3166 3168 3167 3167 3167 3166 3166 3166 3166 3165 3165 3166 3166 3166 3166 3166 3166 3166 3167 3168 3169 3170 3172
3158 3157 3157 3158 3160 3159 3159 3157 3159 3160 3162 3162 3163 3163 3162 3163 3164 3164 3164 3164 3165 3165 3166 3165 3165 3165 3165 3164 3164 3164 3164 3164 3164 3165 3166 3166 3166 3168 3169 3169 3169 3170 3172
3154 3155 3155 3156 3157 3157 3157 3157 3156 3155 3157 3161 3161 3161 3161 3161 3161 3161 3162 3162 3162 3162 3163 3162 3163 3163 3163 3162 3162 3162 3162 3162 3162 3163 3164 3165 3166 3168 3169 3169 3169 3170 3171
3153 3153 3154 3154 3154 3154 3153 3155 3154 3154 3154 3154 3157 3159 3160 3159 3158 3158 3159 3159 3159 3160 3159 3159 3159 3160 3160 3160 3160 3160 3160 3160 3161 3162 3163 3163 3165 3167 3167 3168 3168 3169 3171
3151 3151 3152 3152 3152 3152 3152 3152 3151 3151 3151 3151 3152 3152 3154 3156 3156 3156 3156 3156 3156 3157 3157 3157 3157 3157 3158 3158 3158 3158 3158 3157 3158 3159 3161 3162 3162 3165 3166 3167 3167 3168 3170
3148 3148 3148 3148 3149 3149 3149 3149 3150 3150 3148 3148 3147 3148 3148 3148 3150 3152 3153 3152 3153 3154 3154 3154 3154 3155 3155 3156 3156 3156 3156 3155 3156 3156 3158 3159 3161 3162 3164 3165 3166 3167 3169
3145 3145 3145 3145 3144 3145 3145 3145 3146 3145 3145 3145 3146 3145 3144 3146 3145 3145 3147 3148 3148 3150 3150 3151 3151 3152 3153 3154 3155 3155 3154 3154 3153 3154 3155 3157 3159 3161 3162 3163 3165 3166 3168
3142 3141 3141 3141 3141 3141 3142 3140 3140 3140 3140 3140 3140 3140 3140 3141 3141 3141 3141 3141 3143 3145 3146 3147 3148 3149 3150 3151 3151 3152 3153 3152 3152 3152 3153 3155 3157 3160 3161 3162 3163 3164 3166
3137 3137 3137 3137 3136 3136 3136 3135 3134 3133 3134 3135 3135 3136 3136 3136 3137 3137 3138 3137 3139 3140 3142 3143 3144 3146 3147 3147 3149 3149 3151 3150 3150 3150 3151 3153 3156 3159 3160 3161 3162 3163 3165
3131 3131 3131 3131 3130 3130 3129 3128 3128 3128 3127 3128 3129 3129 3130 3132 3132 3132 3132 3134 3133 3134 3137 3139 3140 3141 3143 3144 3145 3147 3148 3148 3149 3149 3150 3152 3154 3157 3158 3160 3162 3162 3163
3124 3124 3123 3123 3122 3122 3122 3122 3121 3121 3121 3121 3121 3122 3123 3124 3125 3126 3127 3128 3129 3129 3131 3133 3135 3136 3137 3139 3141 3142 3144 3144 3146 3147 3148 3149 3151 3153 3155 3157 3159 3161 3162
3114 3113 3113 3113 3113 3113 3113 3113 3113 3114 3114 3113 3113 3113 3114 3116 3117 3119 3121 3121 3122 3123 3123 3126 3128 3129 3131 3133 3135 3137 3138 3139 3141 3143 3145 3146 3148 3150 3152 3154 3156 3159 3160
3104 3103 3101 3101 3102 3102 3102 3103 3103 3104 3105 3105 3105 3104 3105 3107 3108 3110 3112 3114 3115 3116 3116 3117 3120 3123 3125 3127 3130 3132 3132 3134 3135 3138 3140 3142 3143 3146 3148 3151 3153 3156 3158
3095 3094 3092 3090 3089 3090 3090 3091 3091 3093 3094 3095 3096 3095 3097 3098 3099 3101 3103 3106 3105 3105 3107 3108 3111 3115 3117 3120 3123 3125 3127 3129 3129 3132 3134 3137 3139 3141 3145 3147 3149 3152 3155
3085 3083 3081 3081 3080 3078 3078 3079 3079 3080 3081 3083 3084 3085 3086 3088 3089 3091 3093 3096 3096 3092 3099 3089 3099 3105 3108 3111 3115 3119 3121 3123 3123 3126 3128 3131 3133 3137 3140 3143 3145 3146 3150
3075 3073 3070 3068 3068 3069 3067 3066 3067 3068 3068 3069 3071 3072 3075 3077 3077 3080 3082 3084 3086 3086 3081 3088 3075 3088 3098 3104 3108 3112 3115 3116 3117 3120 3122 3125 3127 3131 3135 3138 3140 3142 3146
3067 3065 3062 3058 3055 3053 3055 3055 3053 3054 3056 3056 3057 3059 3059 3064 3065 3068 3070 3073 3076 3077 3079 3083 3080 3089 3089 3095 3100 3104 3107 3109 3111 3114 3116 3119 3122 3125 3129 3133 3136 3138 3141
3060 3057 3054 3050 3047 3046 3044 3043 3042 3040 3041 3043 3044 3044 3046 3049 3052 3054 3057 3061 3063 3067 3072 3073 3072 3077 3080 3084 3090 3094 3099 3102 3104 3107 3110 3112 3115 3118 3122 3126 3130 3132 3137
3055 3051 3048 3044 3040 3037 3036 3034 3031 3031 3029 3028 3030 3030 3032 3034 3037 3040 3044 3048 3050 3055 3060 3064 3064 3068 3060 3072 3078 3080 3088 3095 3097 3101 3103 3105 3108 3111 3114 3118 3123 3126 3131
3050 3045 3041 3037 3034 3029 3027 3024 3023 3020 3019 3019 3017 3017 3017 3020 3022 3026 3029 3033 3037 3041 3047 3052 3056 3060 3060 3066 3063 3069 3077 3084 3088 3092 3097 3098 3101 3104 3107 3110 3114 3119 3123
3043 3039 3033 3028 3024 3020 3015 3014 3011 3011 3009 3008 3007 3006 3006 3006 3007 3011 3015 3019 3023 3028 3034 3040 3043 3049 3051 3058 3061 3064 3061 3070 3076 3083 3088 3091 3095 3098 3100 3103 3106 3110 3115
3037 3029 3023 3019 3014 3010 3006 3003 3002 3001 3000 2998 2996 2996 2995 2995 2994 2996 3000 3004 3009 3014 3021 3028 3033 3034 3039 3050 3053 3057 3054 3057 3066 3073 3078 3084 3088 3091 3095 3098 3100 3104 3109
3029 3022 3016 3010 3004 3000 2997 2993 2990 2989 2989 2987 2986 2985 2986 2985 2985 2984 2986 2989 2994 2999 3006 3014 3021 3028 3027 3037 3043 3047 3048 3051 3054 3062 3070 3077 3081 3084 3089 3093 3096 3099 3104
3021 3014 3007 3001 2996 2992 2987 2984 2980 2978 2977 2976 2973 2974 2974 2975 2975 2975 2976 2977 2978 2984 2991 2998 3006 3015 3017 3021 3031 3035 3041 3043 3049 3052 3061 3068 3072 3078 3083 3088 3092 3094 3098
3014 3007 3000 2993 2988 2983 2979 2974 2971 2967 2965 2965 2965 2962 2964 2964 2964 2966 2966 2966 2967 2970 2976 2983 2992 2999 3005 3012 3020 3026 3031 3034 3042 3046 3049 3059 3067 3072 3078 3082 3084 3088 3092